Location: Long Geng
(2.6167°N, 114.1333°E)
Time: 01:35:17
(UTC+00:00)

ARIANE 3 DEB - Pass Details

Date: 14 May 2021
Orbit: 274 x 4690 km, 6.8° (Epoch: 19 June)

Event Time Altitude Azimuth Distance (km) Brightness Sun altitude
Exits shadow 20:45:23 30° 188° (S) 1,196 4.2 -21.3°
Maximum altitude 20:45:24 30° 188° (S) 1,194 4.2 -21.3°
Drops below altitude 10° 20:48:37 10° 123° (ESE) 1,619 5.7 -20.6°
Sets 20:50:22 0° 110° (ESE) 2,254 6.7 -20.2°
